Regional Weather Roundup
Issued by NWS

Home | Current Version | Previous Version | Text Only | Print | Product List | Glossary Off
Versions: 1 2 3 4 5 6 7 8 9 10 11 12 13 14 15 16 17 18 19 20 21 22 23 24 25 26 27 28 29 30 31 32 33 34 35 36 37 38 39 40 41 42 43 44 45 46 47 48 49 50

305
ASUS43 KTOP 050108
RWRKS

WEATHER ROUNDUP FOR KANSAS
NATIONAL WEATHER SERVICE GOODLAND KS
800 PM CDT WED MAY 04 2016

NOTE:  "FAIR" INDICATES FEW OR NO CLOUDS BELOW 12,000 FEET WITH NO
SIGNIFICANT WEATHER AND/OR OBSTRUCTIONS TO VISIBILITY.

KSZ001>006-013>018-027>032-041>047-050200-
NORTHWEST KANSAS

CITY           SKY/WX    TMP DP  RH WIND       PRES   REMARKS
GOODLAND       CLEAR     68  48  48 E7        30.10F
HAYS           CLEAR     68  45  42 NE5       30.05F
HILL CITY      CLEAR     71  44  37 E3        30.06F
RUSSELL        CLEAR     67  42  40 NE7       30.03F
$$

KSZ061>065-074>080-084>089-050200-
SOUTHWEST KANSAS

CITY           SKY/WX    TMP DP  RH WIND       PRES   REMARKS
DODGE CITY     CLEAR     69  46  43 NE8       30.07F
ELKHART          N/A     72  46  39 E6          N/A
GARDEN CITY    CLEAR     73  42  32 NE7       30.07F
GREAT BEND     CLEAR     64  46  52 MISG      30.04F
LIBERAL        CLEAR     73  43  33 CALM      30.09F
PRATT          CLEAR     66  40  38 N7        30.05S
$$

KSZ066>073-081>083-090>101-050200-
SOUTHEAST KANSAS

CITY           SKY/WX    TMP DP  RH WIND       PRES   REMARKS
CHANUTE        CLEAR     66  38  35 NW7       29.98S
COFFEYVILLE    CLEAR     65  41  41 N8        29.98S
HUTCHINSON     CLEAR     68  36  30 N7        30.03S
MEDICINE LODGE   N/A     70  44  39 NE6       30.03S
NEWTON         CLEAR     63  37  39 N7        30.05R
PARSONS        CLEAR     64  42  44 N6        29.99S
WICHITA INTL   CLEAR     69  33  26 N12       30.02S
WICHITA JABRA  CLEAR     65  40  39 N8        30.02R
WICHITA MCCONL CLEAR     69  36  29 N12       30.02R
WINFIELD       CLEAR     64  41  42 N7        30.42R
$$

KSZ007>012-019>026-033>040-048>060-102>105-050200-
NORTHEAST KANSAS

CITY           SKY/WX    TMP DP  RH WIND       PRES   REMARKS
CONCORDIA      CLEAR     65  34  31 N6        30.02F
EMPORIA        CLEAR     66  35  31 N6        30.00R
LAWRENCE       CLEAR     63  39  41 N8        29.98S
MANHATTAN      CLEAR     68  36  30 N3        30.00S
MARYSVILLE     CLEAR     63  41  45 N5        30.00F
OLATHE IND     CLEAR     63  39  41 NW9       29.98S
OLATHE EXE     CLEAR     65  34  31 N10       29.97S
SALINA         CLEAR     67  41  38 N7        30.03S
TOPEKA BILLARD CLEAR     65  36  34 N7        29.99S
TOPEKA FORBES  CLEAR     67  37  33 N6        29.99S
$$




USA.gov is the U.S. government's official web portal to all federal, state and local government web resources and services.